Weather History for Kendall, FL

Change the Weather History Date:

Saturday, April 6, 2013

  Actual Average Record
Temperature  
Mean Temperature 71 °F -  
Max Temperature 82 °F 81 °F 93 °F (2009)
Min Temperature 60 °F 58 °F 48 °F (1990)
Cooling Degree Days 6    
Growing Degree Days 21 (Base 50)    
Moisture  
Dew Point 59 °F    
Average Humidity 74    
Maximum Humidity 93    
Minimum Humidity 40    
Precipitation  
Precipitation 0.00 in - - ()
Sea Level Pressure  
Sea Level Pressure 30.01 in    
Wind  
Wind Speed 10 mph (NNE)    
Max Wind Speed 16 mph    
Max Gust Speed 21 mph    
Visibility 10 miles    
Events      
Averages and records for this station are not official NWS values.
T = Trace of Precipitation, MM = Missing Value Source: NWS Daily Summary

Daily Weather History Graph

Daily Weather History Graph

Search for Another Location

Airport:

Trip Planner

Search our weather history database for the weather conditions in past years. The results will help you decide how hot, cold, wet, or windy it might be!

Date:

Astronomy

Apr. 06, 2013 Rise Set
Actual Time 7:07 AM EDT 7:40 PM EDT
Civil Twilight 6:44 AM EDT 8:04 PM EDT
Nautical Twilight 6:17 AM EDT 8:31 PM EDT
Astronomical Twilight 5:49 AM EDT 8:58 PM EDT
Moon 4:28 AM EDT (4/6) 4:26 PM EDT (4/6)
Length of Visible Light 13h 19m
Length of Day
12h 33m
Waning Crescent, 15% of the Moon is Illuminated
Apr 6
Waning Crescent
Apr 10
New
Apr 18
First Quarter
Apr 25
Full
May 2
Last Quarter

Hourly Weather History & Observations

Time (EDT) Temp. Heat Index Dew Point Humidity Pressure Visibility Wind Dir Wind Speed Gust Speed Precip Events Conditions
12:53 AM 63.0 °F - 60.1 °F 90% 29.96 in 10.0 mi WNW 10.4 mph - N/A   Clear
1:53 AM 61.0 °F - 57.9 °F 90% 29.96 in 10.0 mi WNW 8.1 mph - N/A   Clear
2:53 AM 60.1 °F - 57.9 °F 93% 29.96 in 10.0 mi NW 6.9 mph - N/A   Clear
3:53 AM 60.1 °F - 57.0 °F 90% 29.95 in 10.0 mi NW 6.9 mph - N/A   Clear
4:24 AM 60.8 °F - 57.2 °F 88% 29.95 in 10.0 mi NNW 8.1 mph - N/A   Mostly Cloudy
4:53 AM 61.0 °F - 59.0 °F 93% 29.95 in 10.0 mi NNW 6.9 mph - N/A   Overcast
5:10 AM 62.6 °F - 59.0 °F 88% 29.96 in 10.0 mi NNW 9.2 mph - N/A   Overcast
5:53 AM 62.1 °F - 60.1 °F 93% 29.96 in 10.0 mi NNW 10.4 mph - N/A   Overcast
6:38 AM 62.6 °F - 59.0 °F 88% 29.98 in 10.0 mi North 15.0 mph - N/A   Overcast
6:53 AM 61.0 °F - 57.9 °F 90% 29.98 in 10.0 mi North 13.8 mph - N/A   Overcast
7:31 AM 60.8 °F - 57.2 °F 88% 30.01 in 10.0 mi North 12.7 mph - N/A   Scattered Clouds
7:53 AM 61.0 °F - 57.9 °F 90% 30.03 in 10.0 mi North 10.4 mph 20.7 mph N/A   Clear
8:46 AM 62.6 °F - 57.2 °F 82% 30.04 in 10.0 mi North 12.7 mph - N/A   Mostly Cloudy
8:53 AM 63.0 °F - 57.9 °F 84% 30.04 in 10.0 mi North 13.8 mph - N/A   Mostly Cloudy
9:10 AM 64.4 °F - 57.2 °F 77% 30.04 in 10.0 mi North 16.1 mph - N/A   Scattered Clouds
9:53 AM 66.0 °F - 57.9 °F 75% 30.04 in 10.0 mi North 16.1 mph - N/A   Scattered Clouds
10:53 AM 70.0 °F - 59.0 °F 68% 30.04 in 10.0 mi NNE 15.0 mph - N/A   Partly Cloudy
11:53 AM 73.0 °F - 59.0 °F 61% 30.04 in 10.0 mi North 9.2 mph - N/A   Partly Cloudy
12:53 PM 75.0 °F - 59.0 °F 57% 30.05 in 10.0 mi Variable 3.5 mph - N/A   Partly Cloudy
1:53 PM 78.1 °F - 57.9 °F 50% 30.04 in 10.0 mi Calm Calm - N/A   Scattered Clouds
2:53 PM 80.1 °F 80.0 °F 54.0 °F 40% 30.01 in 10.0 mi Calm Calm - N/A   Clear
3:53 PM 81.0 °F 80.8 °F 55.9 °F 42% 30.01 in 10.0 mi East 9.2 mph - N/A   Mostly Cloudy
4:53 PM 82.0 °F 82.1 °F 59.0 °F 45% 30.00 in 10.0 mi ENE 10.4 mph 16.1 mph N/A   Partly Cloudy
5:53 PM 77.0 °F - 63.0 °F 62% 30.02 in 10.0 mi East 15.0 mph - N/A   Scattered Clouds
6:53 PM 75.0 °F - 62.1 °F 64% 30.03 in 10.0 mi ENE 16.1 mph - N/A   Scattered Clouds
7:53 PM 73.9 °F - 61.0 °F 64% 30.04 in 10.0 mi ENE 12.7 mph - N/A   Partly Cloudy
8:53 PM 72.0 °F - 60.1 °F 66% 30.05 in 10.0 mi ENE 10.4 mph - N/A   Clear
9:53 PM 71.1 °F - 60.1 °F 68% 30.08 in 10.0 mi ENE 8.1 mph - N/A   Clear
10:53 PM 68.0 °F - 59.0 °F 73% 30.09 in 10.0 mi East 6.9 mph - N/A   Clear
11:53 PM 68.0 °F - 59.0 °F 73% 30.10 in 10.0 mi East 3.5 mph - N/A   Clear